EUTELSAT 21B

Last updated on Fri Jul 10 2026 00:03:03 GMT+0000 (Coordinated Universal Time)

1 38992U 12062B 26190.28864119 .00000143 00000+0 00000+0 0 9995 2 38992 0.0646 1.5406 0003222 107.3526 303.8236 1.00271321 50049
UTC large
Height (km)
Speed (km/s)
/
Latitude / Longitude
Inclination (degrees)
Orbital Period (minutes)
Azimuth
Elevation
Range (km)
Doppler Factor

Next 0 passes for location: London (51.5072 / 0.1276)

No passes found over London.
EUTELSAT 21B